User: anonymous   Login
Location: Unspecified
(0.0000°N, 0.0000°E)
Time: 00:34:45
(UTC+00:00)
Language:

OPTUS D1 - Orbit

View from above orbital plane
View from above orbital plane
View from above satellite
View from above satellite

Ground track
Ground track

The orbit data is extracted from the following two-line orbital elements,

1 29495U 06043B   15061.63732302 -.00000134  00000-0  10000-3 0  9994
2 29495 000.0260 304.1004 0002784 028.7052 216.6962 01.00271952 30783
Epoch (UTC): 02 March 2015 15:17:44
Eccentricity: 0.0002784
inclination: 0.0260°
perigee height: 35774 km
apogee height: 35798 km
right ascension of ascending node: 304.1004°
argument of perigee: 28.7052°
revolutions per day: 1.00271952
mean anomaly at epoch: 216.6962°
orbit number at epoch: 3078

The dashed part of the orbit path shows where the satellite is in the earth's shadow,  

DLR